Weather reports worldwide

Advertisment
Shap, United Kingdom (3225): temperature & dewpoint: 13.02.2018 14:00:00 - 19.02.2018 14:00:00 (GMT)Shap, United Kingdom (3225): temperature -20cm & temperature -100cm: 13.02.2018 14:00:00 - 19.02.2018 14:00:00 (GMT)Shap, United Kingdom (3225): wind speed & gusts: 13.02.2018 14:00:00 - 19.02.2018 14:00:00 (GMT)Shap, United Kingdom (3225): wind direction: 13.02.2018 14:00:00 - 19.02.2018 14:00:00 (GMT)Shap, United Kingdom (3225): reduced air pressure: 13.02.2018 14:00:00 - 19.02.2018 14:00:00 (GMT)Shap, United Kingdom (3225): visibility: 13.02.2018 14:00:00 - 19.02.2018 14:00:00 (GMT)Shap, United Kingdom (3225): precipitation: 13.02.2018 14:00:00 - 19.02.2018 14:00:00 (GMT)
Date & Time tt [°C] td [°C] tt -20cm [°C] tt -100cm [°C] ff [km/h] ff [kn] fx [km/h] fx [kn] dd ppp [hPa] vv [km] rr [mm]
19.02.2018 14:00:00 - - - - - - - - - - - -
19.02.2018 13:00:00 11,8 7,9 - - 18 10 - - NW 1016,2 40 0,0
19.02.2018 12:00:00 11,1 7,8 - - 18 10 - - NNW 1016,2 40 0,0
19.02.2018 11:00:00 10,3 7,8 - - 13 7 - - NW 1016,3 35 0,0
19.02.2018 10:00:00 9,9 8,1 - - 13 7 - - NW 1016,0 35 0,0
19.02.2018 09:00:00 9,4 8,1 2,7 3,7 13 7 - - NW 1015,8 40 0,2
19.02.2018 08:00:00 8,8 8,0 - - 9 5 - - NW 1015,8 5 0,4
19.02.2018 07:00:00 8,6 7,8 - - 8 4 - - NW 1015,4 9 0,0
19.02.2018 06:00:00 7,4 7,0 - - 2 1 - - E 1015,2 21 0,0
19.02.2018 05:00:00 6,7 6,3 - - 4 2 - - SSE 1015,1 30 0,2
19.02.2018 04:00:00 6,2 5,6 - - 2 1 - - S 1015,1 15 0,0
19.02.2018 03:00:00 6,3 5,3 - - 2 1 - - NNW 1015,1 45 0,0
19.02.2018 02:00:00 6,1 5,0 - - 21 11 - - SW 1015,4 50 0,0
19.02.2018 01:00:00 5,0 4,5 - - 13 7 - - SW 1016,3 10 0,2
19.02.2018 00:00:00 5,3 4,7 - - 13 7 - - SW 1016,6 13 0,0
18.02.2018 23:00:00 5,4 4,8 - - 16 9 - - SSE 1016,6 6 0,4
18.02.2018 22:00:00 5,4 4,9 - - 15 8 - - SSE 1016,7 5 0,2
18.02.2018 21:00:00 5,3 4,6 - - 11 6 - - SSE 1016,8 6 0,6
18.02.2018 20:00:00 5,2 4,6 - - 9 5 - - SSE 1017,2 5 0,4
18.02.2018 19:00:00 5,2 4,6 - - 15 8 - - SSE 1017,6 5 1,0
18.02.2018 18:00:00 5,1 4,4 - - 13 7 - - S 1017,9 7 0,0
18.02.2018 17:00:00 5,0 4,2 - - 15 8 - - S 1018,1 8 0,0
18.02.2018 16:00:00 4,9 4,1 - - 4 2 - - SSE 1018,6 11 0,0
18.02.2018 15:00:00 4,9 3,9 - - 18 10 - - SSW 1018,7 15 0,0
18.02.2018 14:00:00 4,9 3,9 - - 16 9 - - SSW 1019,0 14 0,0
18.02.2018 13:00:00 5,1 3,9 - - 18 10 - - SSW 1019,1 5 0,0
18.02.2018 12:00:00 5,2 3,8 - - 21 11 - - S 1019,3 7 0,0
18.02.2018 11:00:00 5,7 4,1 - - 15 8 - - S 1019,3 10 0,0
18.02.2018 10:00:00 3,9 3,1 - - 9 5 - - SSE 1019,6 9 0,0
18.02.2018 09:00:00 3,4 2,7 2,2 3,5 8 4 - - S 1019,9 1,9 0,0
18.02.2018 08:00:00 1,9 1,5 - - 4 2 - - S 1020,4 0,7 0,0
18.02.2018 07:00:00 1,5 0,9 - - 4 2 - - SW 1020,5 4,4 0,0
18.02.2018 06:00:00 2,3 1,8 - - 5 3 - - WSW 1020,3 6 0,2
18.02.2018 05:00:00 2,6 2,2 - - 4 2 - - WSW 1020,3 1,2 0,0
18.02.2018 04:00:00 2,9 2,4 - - 4 2 - - W 1020,1 8 0,0
18.02.2018 03:00:00 3,2 2,7 - - 9 5 - - SSE 1020,2 12 0,0
18.02.2018 02:00:00 2,5 1,8 - - 5 3 - - S 1020,7 16 0,0
18.02.2018 01:00:00 3,0 2,4 - - 9 5 - - SW 1020,7 8 0,6
18.02.2018 00:00:00 2,8 2,2 - - 8 4 - - SSW 1020,6 14 0,0
17.02.2018 23:00:00 3,2 2,6 - - 5 3 - - WSW 1020,5 8 0,2
17.02.2018 22:00:00 2,8 1,8 - - 9 5 - - SW 1020,2 27 0,0
17.02.2018 21:00:00 3,7 2,8 - - 13 7 - - SSW 1020,1 20 0,0
17.02.2018 20:00:00 3,3 2,2 - - 8 4 - - WSW 1020,2 29 0,0
17.02.2018 19:00:00 4,0 2,5 - - 13 7 - - SW 1020,0 30 0,0
17.02.2018 18:00:00 4,4 2,6 - - 18 10 - - SW 1019,4 35 0,2
17.02.2018 17:00:00 4,3 2,4 - - 15 8 - - SSW 1018,9 40 0,0
17.02.2018 16:00:00 4,7 2,4 - - 16 9 - - SW 1018,7 40 0,0
17.02.2018 15:00:00 5,0 2,8 - - 16 9 - - SW 1018,5 40 0,0
17.02.2018 14:00:00 5,1 3,6 - - 21 11 - - SW 1018,4 40 0,0
17.02.2018 13:00:00 4,6 3,5 - - 22 12 - - SW 1018,6 45 0,0
17.02.2018 12:00:00 3,9 3,5 - - 16 9 - - SSW 1018,5 12 0,0
17.02.2018 11:00:00 2,9 2,6 - - 16 9 - - S 1018,8 3,6 0,0
17.02.2018 10:00:00 2,8 2,4 - - 21 11 - - SSW 1018,4 9 0,0
17.02.2018 09:00:00 2,5 1,8 2,0 3,5 9 5 - - WSW 1018,2 15 0,2
17.02.2018 08:00:00 2,3 1,4 - - 13 7 - - SE 1017,7 3,9 0,2
17.02.2018 07:00:00 2,0 0,9 - - 15 8 - - S 1017,2 3,5 1,0
17.02.2018 06:00:00 2,3 0,9 - - 28 15 - - SSW 1016,8 6 0,4
17.02.2018 05:00:00 2,0 0,9 - - 28 15 - - S 1017,1 5 1,4
17.02.2018 04:00:00 2,1 0,9 - - 24 13 - - S 1017,8 12 0,4
17.02.2018 03:00:00 1,7 1,0 - - 16 9 - - SSE 1018,3 11 1,2
17.02.2018 02:00:00 1,6 0,5 - - 26 14 - - S 1019,1 4,8 1,4
17.02.2018 01:00:00 2,5 1,2 - - 21 11 - - S 1019,2 10 0,8
17.02.2018 00:00:00 2,8 0,7 - - 28 15 - - S 1019,1 19 0,0
16.02.2018 23:00:00 3,1 0,8 - - 28 15 - - S 1019,0 30 0,0
16.02.2018 22:00:00 2,9 0,7 - - 26 14 - - S 1019,4 35 0,0
16.02.2018 21:00:00 3,2 0,9 - - 16 9 - - S 1019,6 35 0,0
16.02.2018 20:00:00 3,7 1,4 - - 13 7 - - S 1019,7 30 0,0
16.02.2018 19:00:00 3,9 1,6 - - 13 7 - - S 1020,0 30 0,0
16.02.2018 18:00:00 3,5 1,9 - - 13 7 - - S 1020,1 30 0,0
16.02.2018 17:00:00 4,1 1,9 - - 21 11 - - SSW 1020,1 35 0,0
16.02.2018 16:00:00 4,6 2,4 - - 21 11 - - SSW 1020,3 30 0,0
16.02.2018 15:00:00 4,7 2,3 - - 22 12 - - SSW 1020,4 21 0,0
16.02.2018 14:00:00 4,9 2,4 - - 22 12 - - SW 1020,5 30 0,0
16.02.2018 13:00:00 4,9 2,1 - - 16 9 - - SW 1020,8 27 0,0
16.02.2018 12:00:00 4,5 2,0 - - 18 10 - - S 1021,2 26 0,0
16.02.2018 11:00:00 4,1 1,3 - - 21 11 - - SW 1020,9 30 0,0
16.02.2018 10:00:00 3,9 1,0 - - 18 10 - - WSW 1020,5 30 0,0
16.02.2018 09:00:00 2,8 0,3 1,9 3,5 21 11 - - SW 1020,1 25 0,0
16.02.2018 08:00:00 2,3 -0,4 - - 15 8 - - WSW 1019,6 29 0,0
16.02.2018 07:00:00 0,9 -0,6 - - 16 9 - - S 1019,3 25 0,0
16.02.2018 06:00:00 2,4 -1,2 - - 8 4 - - WSW 1018,3 30 0,0
16.02.2018 05:00:00 2,6 -0,9 - - 15 8 - - WSW 1017,6 28 0,0
16.02.2018 04:00:00 2,3 -2,0 - - 21 11 - - WSW 1016,8 30 0,0
16.02.2018 03:00:00 2,1 -2,3 - - 21 11 - - WSW 1016,3 30 0,0
16.02.2018 02:00:00 2,0 -2,3 - - 21 11 - - W 1015,2 30 0,0
16.02.2018 01:00:00 2,1 -2,5 - - 22 12 - - WSW 1014,5 35 0,0
16.02.2018 00:00:00 2,1 -2,5 - - 22 12 - - W 1013,8 35 0,0
15.02.2018 23:00:00 2,4 -2,5 - - 21 11 - - W 1013,1 35 0,0
15.02.2018 22:00:00 2,3 -2,6 - - 22 12 - - W 1012,0 30 0,2
15.02.2018 21:00:00 2,5 -2,9 - - 26 14 54 29 WSW 1010,8 35 0,0
15.02.2018 20:00:00 2,5 -1,8 - - 24 13 57 31 WSW 1009,9 30 0,0
15.02.2018 19:00:00 2,8 -2,0 - - 29 16 52 28 WSW 1008,5 29 0,0
15.02.2018 18:00:00 2,6 -2,0 - - 31 17 59 32 WSW 1007,9 30 0,0
15.02.2018 17:00:00 2,8 -2,0 - - 28 15 55 30 WSW 1007,1 26 0,2
15.02.2018 16:00:00 2,9 -1,9 - - 31 17 57 31 WSW 1006,2 29 0,0
15.02.2018 15:00:00 2,9 -2,0 - - 29 16 54 29 WSW 1005,3 30 0,0
15.02.2018 14:00:00 2,6 -1,6 - - 31 17 54 29 WSW 1004,7 7 0,0
15.02.2018 13:00:00 2,7 -1,5 - - 28 15 54 29 WSW 1004,0 9 0,4
15.02.2018 12:00:00 3,0 -0,6 - - 28 15 54 29 WSW 1002,9 21 0,4
15.02.2018 11:00:00 3,2 -1,0 - - 31 17 57 31 WSW 1001,8 35 0,2
15.02.2018 10:00:00 3,1 -0,9 - - 34 18 52 28 WSW 1001,1 30 0,0
15.02.2018 09:00:00 2,9 -1,0 1,9 3,7 35 19 65 35 WSW 1000,1 30 0,2
15.02.2018 08:00:00 2,9 -1,6 - - 26 14 48 26 WSW 999,2 28 0,0
15.02.2018 07:00:00 3,2 -1,4 - - 24 13 - - WSW 998,5 30 0,0
15.02.2018 06:00:00 3,4 -1,0 - - 22 12 - - WSW 997,7 35 0,0
15.02.2018 05:00:00 3,9 0,3 - - 26 14 - - WSW 996,8 30 0,0
15.02.2018 04:00:00 3,5 1,5 - - 21 11 - - WSW 995,7 30 1,2
15.02.2018 03:00:00 3,5 1,3 - - 24 13 46 25 WSW 995,1 4,9 1,0
15.02.2018 02:00:00 4,3 3,3 - - 26 14 48 26 SW 994,7 2,5 2,0
15.02.2018 01:00:00 4,6 3,6 - - 31 17 48 26 SSW 994,5 16 0,0
15.02.2018 00:00:00 4,0 3,2 - - 24 13 - - SSW 994,4 8 0,0
14.02.2018 23:00:00 4,6 3,5 - - 28 15 - - SW 994,3 16 0,0
14.02.2018 22:00:00 4,2 3,8 - - 21 11 - - SW 994,1 12 0,0
14.02.2018 21:00:00 3,7 3,4 - - 26 14 - - SSW 993,8 12 0,0
14.02.2018 20:00:00 3,6 3,2 - - 34 18 48 26 SSW 993,4 10 0,6
14.02.2018 19:00:00 3,2 2,5 - - 31 17 54 29 SSW 993,0 9 2,0
14.02.2018 18:00:00 3,2 2,5 - - 31 17 61 33 SW 992,5 4,1 3,4
14.02.2018 17:00:00 2,9 2,2 - - 37 20 54 29 SSW 992,0 2,4 4,6
14.02.2018 16:00:00 2,5 1,5 - - 39 21 59 32 SSW 992,6 1,9 2,8
14.02.2018 15:00:00 2,0 1,2 - - 39 21 57 31 S 992,9 1,6 1,8
14.02.2018 14:00:00 1,8 1,0 - - 41 22 63 34 SSW 993,8 1,9 3,6
14.02.2018 13:00:00 0,8 0,3 - - 44 24 59 32 S 994,1 2,1 1,8
14.02.2018 12:00:00 0,4 -0,1 - - 37 20 55 30 S 995,2 2,3 0,8
14.02.2018 11:00:00 0,3 -0,7 - - 35 19 55 30 S 996,5 1,2 0,2
14.02.2018 10:00:00 1,1 -2,3 - - 37 20 67 36 S 997,3 40 -
14.02.2018 09:00:00 0,6 -3,3 2,2 4,0 42 23 63 34 S 997,8 40 0,0
14.02.2018 08:00:00 0,2 -3,4 - - 37 20 54 29 S 999,4 40 0,0
14.02.2018 07:00:00 0,2 -3,5 - - 31 17 48 26 S 1000,0 35 0,0
14.02.2018 06:00:00 -0,4 -3,3 - - 28 15 - - S 1001,3 30 0,0
14.02.2018 05:00:00 -0,4 -3,7 - - 21 11 - - S 1002,0 35 0,0
14.02.2018 04:00:00 -0,9 -3,7 - - 21 11 - - S 1002,6 35 0,0
14.02.2018 03:00:00 -1,1 -3,0 - - 21 11 - - SSW 1003,2 35 0,0
14.02.2018 02:00:00 -1,0 -2,9 - - 16 9 - - S 1004,2 35 0,0
14.02.2018 01:00:00 -0,9 -3,2 - - 22 12 - - SSW 1004,5 35 0,0
14.02.2018 00:00:00 -2,9 -4,5 - - 11 6 - - SE 1004,9 28 0,0
13.02.2018 23:00:00 -2,5 -4,4 - - 11 6 - - S 1004,6 30 0,0
13.02.2018 22:00:00 -1,7 -4,2 - - 8 4 - - SSW 1004,8 35 0,0
13.02.2018 21:00:00 -1,2 -4,1 - - 9 5 - - S 1004,7 35 0,0
13.02.2018 20:00:00 -1,0 -3,9 - - 9 5 - - SW 1004,4 40 0,0
13.02.2018 19:00:00 -0,9 -4,0 - - 9 5 - - WSW 1003,8 40 0,0
13.02.2018 18:00:00 0,1 -2,6 - - 11 6 - - W 1002,8 35 0,0
13.02.2018 17:00:00 0,7 -2,8 - - 8 4 - - W 1001,6 35 0,0
13.02.2018 16:00:00 2,1 -2,2 - - 11 6 - - WNW 1000,1 35 0,0
13.02.2018 15:00:00 1,5 -1,0 - - 9 5 - - NW 999,1 40 0,4
13.02.2018 14:00:00 0,6 -0,2 - - 9 5 - - NNW 998,2 50 1,8

tt = temperature
td = dewpoint
tt -20cm = temperature -20cm
tt -100cm = temperature -100cm
ff = wind speed
fx = gusts
dd = wind direction
ppp = reduced air pressure
vv = visibility
rr = precipitation

Next stations